"Pseudo-MPEC" for C1FCYU2

Created 2019 Nov 9 8:07:10 UT using Find_Orb

Click here for an explanation of pseudo-MPECs

 
 Astrometry: 
     C1FCYU2  C2019 11 05++$/:):jT[D-Astrometryx%@-O[C=O$ZM0mY;x7$m@o1ZIFRGTPF51
     C1FCYU2  C2019 11 05LpKYy,Wq5[+bkxv,Q3dDT(9?=beo/s6iKoC1:FbEc-C9nNLXrZ;1F51
     C1FCYU2  C2019 11 05SXM?M78redacted;'M\Rv%c#?d?ML;click@tjl-b'HNZ!S-8l5eF51
     C1FCYU2  C2019 11 05(A-+?I^Dvd9p9)bFlCn@Xtu1[4WpS_8olwhLFJvEdl^m.*9RxYdrF51
     C1FCYU2  C2019 11 08.24224 03 23 42.23 +14 32 57.0    ~B86M 20.7 GVNEOCPG96
     C1FCYU2  C2019 11 08.24649 03 23 46.95 +14 32 00.3    ~B86M 20.6 GVNEOCPG96
     C1FCYU2  C2019 11 08.25075 03 23 51.69 +14 31 02.8    ~B86M 20.6 GVNEOCPG96
     C1FCYU2  C2019 11 08.25501 03 23 56.37 +14 30 05.8    ~B86M 20.4 GVNEOCPG96
     C1FCYU2  C2019 11 08.27215 03 24 15.19 +14 26 07.9    ~B86q 20.4 GVNEOCPG96
     C1FCYU2  C2019 11 08.27273 03 24 15.81 +14 26 00.0    ~B86q 21.3 GVNEOCPG96
     C1FCYU2  C2019 11 08.27331 03 24 16.48 +14 25 51.3    ~B86q 20.5 GVNEOCPG96
     C1FCYU2  C2019 11 08.27389 03 24 17.14 +14 25 42.8    ~B86q 20.3 GVNEOCPG96
     C1FCYU2 KC2019 11 08/u-wS$P8p_GB1mI\CnFi,mw6-)4@m`OimLvKW4A1shS+here5VA2734
     C1FCYU2 KC2019 11 08$A!04SFA\Z*tkMhrI9O75`1WmpGJkY(2[9F49BJt^.H)[6!^for*734
     C1FCYU2 KC2019 11 08*vsDa*8WQ1D4F744QV8%nGMx\SA^=O\$Yt51j7viKvZ9d1J6#p`6734
     C1FCYU2 KC2019 11 08J'8bDADs71=Na,S]gFGexplanationRp$C5';_gQ/HCKldJndC_P734
     C1FCYU2 KC2019 11 08.92163903 56 09.85 +09 24 55.9    ~B8Mq 19.2 GVNEOCPJ95
     C1FCYU2 KC2019 11 08.92836503 56 39.31 +09 19 42.1    ~B8Mq 19.4 GVNEOCPJ95
     C1FCYU2 KC2019 11 08.93529503 57 09.96 +09 14 13.0    ~B8Mq 19.7 GVNEOCPJ95
     C1FCYU2 KC2019 11 08.94183303 57 39.13 +09 08 58.1    ~B8Mq 19.4 GVNEOCPJ95
     C1FCYU2 KC2019 11 09.03585904 05 20.43 +07 42 19.7    ~B91M 19.1 GVNEOCPJ95
     C1FCYU2 KC2019 11 09.03860904 05 35.29 +07 39 26.1    ~B91M 18.9 GVNEOCPJ95
     C1FCYU2  C2019 11 09.18363504 27 13.71 +04 47 17.3    ~B957 18.9 GVNEOCPH01
     C1FCYU2  C2019 11 09.18794204 27 51.60 +04 40 42.3    ~B957 19.1 GVNEOCPH01
     C1FCYU2  C2019 11 09.19782804 29 19.85 +04 25 14.2    ~B957 19.4 GVNEOCPH01
     C1FCYU2  C2019 11 09.20433604 30 18.96 +04 14 47.1    ~B957 18.4 GVNEOCPH01

Station data:
(734) Farpoint Observatory, Eskridge  (N38.890107 W96.001400)  US/Kansas.
   Observer G. Hug. 0.69-m reflector + CCD.
(F51) Pan-STARRS 1, Haleakala  (N20.707235 W156.255910)  US/Hawaii.
   Observers N. Primak, A. Schultz, S. Watters, J. Thiel, T. Goggia. Measurer
   PS1 Science Consortium. 1.8-m Ritchey-Chrétien + CCD.
(G96) Mt. Lemmon Survey  (N32.442754 W110.788720)  US/Arizona.  Observers T.
   A. Pruyne, B. M. Africano, E. J. Christensen, G. A. Farneth, D. C. Fuls,
   A. R. Gibbs, A. D. Grauer, H. Gröller, J. A. Johnson, R. A. Kowalski, S.
   M. Larson, G. J. Leonard, D. Rankin, R. L. Seaman, F. C. Shelly. 1.5-m
   reflector + 10K CCD.
(H01) Magdalena Ridge Observatory, Socorro  (N33.984833 W107.189333)  US/New
   Mexico.  Observers W. H. Ryan, E. V. Ryan. Measurer W. H. Ryan. 2.4-m
   f/8.9 reflector + CCD.
(J95) Great Shefford  (N51.474969 W1.447003)  UK.  Observer P. Birtwhistle.
   0.40-m f/6.0 Schmidt-Cassegrain + CCD.

Orbital elements:  C1FCYU2
   Perigee 2019 Nov 9.728318 +/- 1.46e-5 TT = 17:28:46 (JD 2458797.228318)
Epoch 2019 Nov  9.0 TT = JDT 2458796.5                        AutoNEOCP
q145866.281 +/- 26.4                (J2000 equator)
H   31.8  G 0.15                    Peri.  235.18969 +/- 0.0019
                                    Node   254.20243 +/- 0.00009
e  13.0577261 +/- 0.00601           Incl.   33.39117 +/- 0.00026
From 26 observations 2019 Nov. 5-9; mean residual 0".63
Residuals in arcseconds: 
191105 F51  .12+  .23+    191108 G96  .75-  .91+    191108 J95  .02+  .19-    
191105 F51  .11-  .18+    191108 G96  .29-  .45+    191108 J95  .90-  .60+    
191105 F51  .02+  .17+    191108 G96  .01+  .19+    191109 J95  .34+  .24+    
191105 F51  .07+  .01+    191108 734  .89+  1.4-    191109 J95  .41-  .63-    
191108 G96  1.0-  .48+    191108 734  .79+  .66-    191109 H01  .93+  .66-    
191108 G96  .54-  .19+    191108 734  .44-  1.5-    191109 H01  1.1+  .46-    
191108 G96  .15+  .21-    191108 734  1.6+  .80-    191109 H01  1.0+  .51-    
191108 G96  .03+  .47+    191108 J95  .37+  .19+    191109 H01  .80+  .30-    
191108 G96  .48-  .59+    191108 J95  .28+  .04+    

Ephemerides (geocentric):
Date (UTC) HH   RA              Dec         delta   r     elong  mag " sig PA
---- -- -- --  -------------   -----------  ------ ------ -----  --- ---- ---
2019 11 09 08  04 52 31.450   +00 42 01.11  249631 0.9920 147.0 19.2 .277  14
2019 11 09 09  05 03 14.934   -01 04 01.23  232675 0.9918 143.9 19.2 .286  48
2019 11 09 10  05 15 38.091   -03 06 08.05  216468 0.9917 140.2 19.1 .438  81
2019 11 09 11  05 30 01.369   -05 26 40.75  201198 0.9915 135.9 19.1 .768  99
2019 11 09 12  05 46 48.975   -08 07 40.84  187105 0.9914 131.0 19.1 1.29 108
2019 11 09 13  06 06 28.259   -11 10 05.60  174485 0.9912 125.3 19.1 2.06 112
2019 11 09 14  06 29 27.408   -14 32 36.11  163691 0.9911 118.8 19.1 3.12 114
2019 11 09 15  06 56 10.079   -18 10 02.86  155118 0.9909 111.5 19.2 4.50 114
2019 11 09 16  07 26 45.734   -21 52 05.44  149161 0.9907 103.4 19.4 6.17 112
2019 11 09 17  08 00 56.299   -25 23 24.12  146148 0.9906  94.9 19.7 8.05 110
2019 11 09 18  08 37 44.690   -28 26 41.18  146267 0.9904  86.2 20.0 9.95 106
2019 11 09 19  09 15 35.741   -30 48 03.83  149511 0.9903  77.7 20.5 11.7 102
2019 11 09 20  09 52 36.530   -32 21 44.32  155678 0.9901  69.7 21.0 13.1  97
2019 11 09 21  10 27 07.753   -33 10 46.20  164433 .98995  62.4 21.6 14.1  93
2019 11 09 22  10 58 06.693   -33 23 59.60  175378 .98979  55.9 22?? 14.8  89
2019 11 09 23  11 25 10.804   -33 11 53.33  188121 .98963  50.3 22?? 15.3  85
2019 11 10 00  11 48 27.209   -32 43 44.84  202314 .98948  45.4 23?? 15.5  82
2019 11 10 01  12 08 18.978   -32 06 35.34  217664 .98932  41.2 24?? 15.6  80
2019 11 10 02  12 25 14.693   -31 25 12.55  233935 .98917  37.6 24?? 15.7  77
2019 11 10 03  12 39 42.487   -30 42 39.43  250943 .98901  34.5 25?? 15.7  76
2019 11 10 04  12 52 07.389   -30 00 45.49  268542 .98886  31.7 26?? 15.6  74
2019 11 10 05  13 02 50.570   -29 20 32.03  286618 .98870  29.3 26?? 15.6  73
2019 11 10 06  13 12 09.477   -28 42 30.05  305083 .98855  27.2 27?? 15.5  72
2019 11 10 07  13 20 18.308   -28 06 52.06  323867 .98840  25.4 27?? 15.4  71
2019 11 10 08  13 27 28.568   -27 33 39.73  342915 .98825  23.7 28?? 15.3  70
2019 11 10 09  13 33 49.581   -27 02 48.59  362183 .98809  22.2 28?? 15.3  69
2019 11 10 10  13 39 28.922   -26 34 10.94  381635 .98794  20.9 29?? 15.2  69
2019 11 10 11  13 44 32.780   -26 07 37.59  401244 .98779  19.7 29?? 15.1  68
2019 11 10 12  13 49 06.232   -25 42 58.91  420985 .98764  18.7 30?? 15.1  68
2019 11 10 13  13 53 13.473   -25 20 05.42  440841 .98749  17.7 30?? 15.0  67
2019 11 10 14  13 56 57.988   -24 58 48.09  460794 .98734  16.8 31?? 15.0  67
2019 11 10 15  14 00 22.688   -24 38 58.52  480832 .98718  16.0 31?? 14.9  67
2019 11 10 16  14 03 30.026   -24 20 28.98  500944 .98703  15.2 32?? 14.9  66
2019 11 10 17  14 06 22.071   -24 03 12.45  521120 .98688  14.5 32?? 14.8  66
2019 11 10 18  14 09 00.588   -23 47 02.56  541353 .98673  13.9 33?? 14.8  66
2019 11 10 19  14 11 27.084   -23 31 53.56  561637 .98658  13.3 33?? 14.8  66
2019 11 10 20  14 13 42.854   -23 17 40.25  581964 .98643  12.8 34?? 14.7  65
2019 11 10 21  14 15 49.018   -23 04 17.97  602332 .98628  12.3 34?? 14.7  65
2019 11 10 22  14 17 46.547   -22 51 42.50  622734 .98613  11.8 35?? 14.7  65
2019 11 10 23  14 19 36.287   -22 39 50.07  643168 .98598  11.4 35?? 14.7  65
2019 11 11 00  14 21 18.978   -22 28 37.24  663630 .98583  11.0 35?? 14.6  65
2019 11 11 01  14 22 55.273   -22 18 00.94  684118 .98568  10.6 36?? 14.6  65
2019 11 11 02  14 24 25.744   -22 07 58.36  704629 .98553  10.2 36?? 14.6  64
2019 11 11 03  14 25 50.901   -21 58 26.99  725161 .98538   9.9 37?? 14.6  64
2019 11 11 04  14 27 11.193   -21 49 24.53  745712 .98523   9.6 37?? 14.6  64
2019 11 11 05  14 28 27.024   -21 40 48.89  766280 .98508   9.3 38?? 14.6  64
2019 11 11 06  14 29 38.752   -21 32 38.20  786864 .98493   9.0 38?? 14.5  64
2019 11 11 07  14 30 46.700   -21 24 50.71  807463 .98478   8.7 38?? 14.5  64